CST,Max TemperatureF,Mean TemperatureF,Min TemperatureF,Max Dew PointF,MeanDew PointF,Min DewpointF,Max Humidity, Mean Humidity, Min Humidity, Max Sea Level PressureIn, Mean Sea Level PressureIn, Min Sea Level PressureIn, Max VisibilityMiles, Mean VisibilityMiles, Min VisibilityMiles, Max Wind SpeedMPH, Mean Wind SpeedMPH, Max Gust SpeedMPH,PrecipitationIn, CloudCover, Events, WindDirDegrees
2013-2-1,62,52,41,41,32,27,71,50,26,30.40,30.35,30.32,10,10,10,9,6,17,0.00,0,,337
2013-2-2,60,46,33,46,35,23,93,62,39,30.38,30.29,30.20,10,10,10,12,4,,0.00,0,,99
2013-2-3,66,54,42,52,40,23,94,66,21,30.27,30.20,30.14,10,10,2,13,5,,0.00,1,,294
2013-2-4,64,53,42,52,43,34,93,66,45,30.13,30.07,29.99,10,10,1,7,2,,0.00,2,Rain,101
2013-2-5,68,60,53,59,56,52,94,89,73,30.05,30.00,29.97,10,8,0,13,4,17,0.30,7,Fog-Rain,63
2013-2-6,66,60,55,59,55,54,94,85,64,30.16,30.08,30.04,10,7,0,13,6,16,0.05,5,Fog-Rain,80
2013-2-7,77,65,53,61,57,50,94,80,39,30.03,29.90,29.80,10,8,0,17,8,25,1.90,4,Fog-Rain-Thunderstorm,12
2013-2-8,69,58,48,57,53,46,94,80,56,30.15,30.06,29.96,10,8,0,10,2,17,0.00,4,Fog,296
2013-2-9,62,54,46,54,48,43,87,75,63,30.27,30.19,30.15,10,10,10,14,6,17,0.00,4,,68
2013-2-10,71,66,60,64,60,50,88,79,68,30.15,30.07,30.00,10,7,4,22,12,29,0.00,6,Rain,133
2013-2-11,73,66,59,70,60,54,94,85,73,30.10,30.07,30.02,10,6,0,14,7,23,0.04,8,Fog-Rain-Thunderstorm,97
2013-2-12,69,63,57,66,60,54,94,85,77,30.05,29.92,29.80,10,8,3,18,8,25,0.02,7,Rain-Thunderstorm,101
2013-2-13,69,58,46,64,50,43,93,83,59,30.07,29.94,29.80,10,9,4,15,9,22,0.05,4,Rain,297
2013-2-14,55,46,37,43,38,36,93,75,47,30.18,30.10,30.05,10,9,1,8,4,,0.09,0,,5
2013-2-15,62,48,35,45,38,32,93,69,32,30.18,30.11,30.06,10,9,1,12,2,,0.02,0,,261
2013-2-16,53,43,32,43,24,9,80,45,18,30.30,30.17,30.09,10,10,10,18,8,29,0.01,2,Rain,317
2013-2-17,51,40,30,34,24,7,93,57,17,30.41,30.33,30.30,10,10,10,9,2,,0.01,0,,108
2013-2-18,62,55,48,54,42,36,72,54,39,30.31,30.22,30.05,10,10,10,24,10,31,0.00,2,Rain,137
2013-2-19,68,54,41,59,45,14,94,62,14,30.22,30.11,30.01,10,10,4,17,10,22,0.71,4,Rain,310
2013-2-20,55,46,37,37,28,18,93,54,23,30.28,30.19,30.10,10,10,10,10,4,17,0.00,0,,35
2013-2-21,68,54,39,63,49,34,94,73,54,30.09,30.00,29.91,10,9,1,21,9,29,0.00,4,,93
2013-2-22,68,66,64,66,63,63,94,91,88,29.98,29.92,29.88,10,4,1,14,6,23,1.59,8,Rain-Thunderstorm,130
2013-2-23,69,63,57,68,58,54,94,89,82,29.96,29.89,29.79,10,8,1,17,7,21,0.42,7,Rain-Thunderstorm,334
2013-2-24,66,58,51,59,52,46,94,80,52,30.00,29.93,29.83,10,9,2,20,7,23,0.06,6,Rain-Thunderstorm,60
2013-2-25,68,64,60,63,60,55,94,91,73,29.84,29.70,29.55,10,8,2,25,13,34,3.64,7,Rain-Thunderstorm,83
2013-2-26,64,58,53,63,43,37,94,62,51,29.93,29.74,29.56,10,10,7,25,15,34,0.36,2,,258
2013-2-27,60,52,44,48,40,30,93,62,34,30.05,29.98,29.93,10,10,10,13,4,16,0.00,0,,243
2013-2-28,59,52,44,50,34,27,82,53,31,30.10,30.05,29.98,10,10,10,16,7,28,0.00,0,,311